Location: Namasale
(1.5000°N, 32.6167°E)
Time: 19:46:04
(UTC+00:00)

Vanguard 1 Rocket - Pass Details

Date: 24 April 2021
Orbit: 652 x 4224 km, 34.3° (Epoch: 10 May)

Event Time Altitude Azimuth Distance (km) Brightness Sun altitude
Rises 23:52:05 0° 233° (SW) 7,016 - -56.0°
Reaches altitude 10° 23:59:17 10° 216° (SW) 6,593 - -54.3°
Exits shadow 00:11:39 19° 183° (S) 6,469 11.4 -51.5°
Maximum altitude 00:14:05 19° 176° (S) 6,520 11.5 -51.0°
Drops below altitude 10° 00:30:29 10° 136° (SE) 7,322 12.1 -47.2°
Sets 00:39:19 0° 120° (ESE) 7,998 12.6 -45.1°
